Tracking 33208 objects as of 14-Feb-2026
HD Live streaming from Space Station
objects crossing your sky now

STARLINK-5321

Track STARLINK-5321 now!
10-day predictions
STARLINK-5321 is classified as:


NORAD ID: 55302
Int'l Code: 2023-010AK
Perigee: 577.0 km
Apogee: 581.4 km
Inclination: 70.0 °
Period: 96.1 minutes
Semi major axis: 6950 km
RCS: Unknown
Launch date: January 19, 2023
Source: United States (US)
Launch site: AIR FORCE WESTERN TEST RANGE (AFWTR)
Your satellite tracking list
Your tracking list is empty




NASA's NSSDC Master Catalog

Two Line Element Set (TLE):
1 55302U 23010AK  26045.47209898  .00000266  00000-0  30074-4 0  9997
2 55302  69.9993  82.9052 0003114 271.3266  88.7536 14.98330519169796
Source of the keplerian elements: AFSPC